STARLINK-1270, 45237

Orbit data source: Space-Track

STARLINK-1270, 45237 is a payload satellite owned by SpaceX/Seattle (US) in LEO that was launched on Mon, 17 Feb 2020 UTC via an FALCON 9 launch vehicle from the Air Force Eastern Test Range (AFETR). Payload-class satellites include a variety of spacecraft equipped with specific instruments for various scientific and technological missions. These include communications satellites like Starlink; space stations such as the ISS; scientific satellites like the Hubble; Earth observation satellites from companies like Planet Labs, Umbra, and HawkEye 360; GPS; miniature CubeSats for education and research; and military/defense satellites.

Loading next visibility...
Identifier
45237, 2020-012BM
Orbit
LEO
Country
Flag of USUS
Related business
Manufacturer
SpaceX/Seattle
Mission
Partially operational Commercial Communications
Bus & Motor
STARLINK, Unknown motor
Mass
260 kg wet, ~248 kg dry
Launch date (UTC)
2020-02-17 (6 years ago)
Launch vehicle
FALCON 9
Launch site
Air Force Eastern Test Range (AFETR)
Object type
Payload
Rocket body
Debris
Shape & HBR
Box + 1 Pan, 10.1 m
Radar Cross Section
13.562 m², Large (>1 m²)

Expand to show TLE details & history
Last TLE update: 3 hours ago

TLE from 3 hours ago
0 STARLINK-1270
1 45237U 20012BM  26124.87278970  .00117154  00000-0  16081-2 0  9996
2 45237  53.0429  77.2168 0005179  60.4943 299.6583 15.56468235344395
Epoch: 2026-05-04T20:56Z
TLE epoch observation values (Epoch: 2026-05-04T20:56:49.030Z)
Latitude
-0.00005°
Longitude
-99.74328°
Altitude
397.05 km
Speed
7.674 km/s
True Right ascension
05h 08m 52s
True Declination
0° 00' 00"
Sunlit
Object was in daylight at epoch
Visualization orbit readout
Latitude
Unknown
Longitude
Unknown
Altitude
Unknown
Speed
Unknown
Apparent Right ascension
Unknown
Apparent Declination
Unknown
Sunlit
N/A
Visualization observer readout
Local Sidereal Time
07:39:03
Azimuth
Unknown
Elevation
Unknown
Doppler factor
Unknown
Orbital elements
Apogee altitude
401.676 km
Perigee altitude
394.657 km
Semi-major axis
6,776.303 km
Eccentricity
0.00052
Inclination
53.0429°
RAAN
77.2168°
Arg. of periapsis
60.4943°
True anomaly
299.60671°
Mean anomaly
299.6583°
Eccentric anomaly
299.63251°
Mean motion
3.89093 °/min
Orbital period
92.52 mins
BSTAR
0.0016081
Loading maneuver chart data...
Computing Atmospheric mass density...
Loading historical data...
Loading historical data...
Loading historical data...
Loading historical data...
Loading historical data...
Loading historical data...
Loading historical data...

Documentation

Showing up to 5 results
|